Pecos, TX

7:01 AM CDT on April 23, 2018 (GMT -0500)
Pecos Municipal

Weather History for KPEQ - September, 2012

Change the Weather History Date:

Friday, September 7, 2012

  Actual Average Record
Temperature  
Mean Temperature 84 °F -  
Max Temperature 102 °F 92 °F 105 °F (1951)
Min Temperature 66 °F 63 °F 51 °F (1952)
Cooling Degree Days 18    
Growing Degree Days 34 (Base 50)    
Moisture  
Dew Point 54 °F    
Average Humidity 42    
Maximum Humidity 74    
Minimum Humidity 15    
Precipitation  
Precipitation 0.00 in - - ()
Sea Level Pressure  
Sea Level Pressure 29.93 in    
Wind  
Wind Speed 4 mph (ESE)    
Max Wind Speed 18 mph    
Max Gust Speed 24 mph    
Visibility 10 miles    
Events      
Averages and records for this station are not official NWS values.
T = Trace of Precipitation, MM = Missing Value Source: NWS Daily Summary

Daily Weather History Graph

Daily Weather History Graph

Search for Another Location

Airport or City:

Astronomy

Sep. 07, 2012 Rise Set
Actual Time 7:33 AM CDT 8:09 PM CDT
Civil Twilight 7:09 AM CDT 8:33 PM CDT
Nautical Twilight 6:40 AM CDT 9:02 PM CDT
Astronomical Twilight 6:11 AM CDT 9:31 PM CDT
Moon No Moon Rise 2:00 PM CDT (9/7)
Length of Visible Light 13h 24m
Length of Day
12h 35m
Waning Gibbous, 58% of the Moon is Illuminated
Sep 7
Waning Gibbous
Sep 8
Last Quarter
Sep 15
New
Sep 22
First Quarter
Sep 29
Full

Hourly Weather History & Observations

Time (CDT) Temp. Heat Index Dew Point Humidity Pressure Visibility Wind Dir Wind Speed Gust Speed Precip Events Conditions
12:15 AM 73.8 °F - 59.4 °F 61% 29.96 in 10.0 mi ENE 3.5 mph - N/A   Clear
12:35 AM 72.7 °F - 59.4 °F 63% 29.96 in 10.0 mi ENE 3.5 mph - N/A   Clear
12:55 AM 72.5 °F - 59.7 °F 64% 29.96 in 10.0 mi ESE 4.6 mph - N/A   Clear
1:15 AM 71.8 °F - 59.9 °F 66% 29.96 in 10.0 mi SSE 3.5 mph - N/A   Clear
1:35 AM 72.9 °F - 59.5 °F 63% 29.97 in 10.0 mi Calm Calm - N/A   Clear
1:55 AM 72.7 °F - 59.7 °F 64% 29.96 in 10.0 mi East 3.5 mph - N/A   Clear
2:15 AM 71.1 °F - 59.7 °F 67% 29.96 in 10.0 mi ESE 3.5 mph - N/A   Clear
2:35 AM 70.7 °F - 58.8 °F 66% 29.96 in 10.0 mi Calm Calm - N/A   Clear
2:55 AM 71.1 °F - 59.2 °F 66% 29.95 in 10.0 mi Calm Calm - N/A   Clear
3:15 AM 71.8 °F - 59.0 °F 64% 29.95 in 10.0 mi Calm Calm - N/A   Clear
3:35 AM 71.6 °F - 59.2 °F 65% 29.95 in 10.0 mi Calm Calm - N/A   Clear
3:55 AM 70.7 °F - 59.4 °F 67% 29.93 in 10.0 mi SSE 4.6 mph - N/A   Clear
4:15 AM 70.7 °F - 58.5 °F 65% 29.94 in 10.0 mi SW 5.8 mph - N/A   Clear
4:35 AM 68.9 °F - 59.2 °F 71% 29.93 in 10.0 mi Calm Calm - N/A   Clear
4:55 AM 69.1 °F - 58.6 °F 69% 29.93 in 10.0 mi North 3.5 mph - N/A   Clear
5:15 AM 69.1 °F - 59.0 °F 70% 29.94 in 10.0 mi Calm Calm - N/A   Clear
5:35 AM 68.9 °F - 59.0 °F 71% 29.95 in 10.0 mi NW 4.6 mph - N/A   Clear
5:55 AM 68.2 °F - 58.6 °F 71% 29.95 in 10.0 mi NW 4.6 mph - N/A   Clear
6:15 AM 67.8 °F - 57.9 °F 71% 29.95 in 10.0 mi WNW 4.6 mph - N/A   Clear
6:35 AM 68.4 °F - 58.3 °F 70% 29.95 in 10.0 mi Calm Calm - N/A   Clear
6:55 AM 66.6 °F - 58.1 °F 74% 29.95 in 10.0 mi Calm Calm - N/A   Clear
7:15 AM 67.1 °F - 57.4 °F 71% 29.96 in 10.0 mi SSW 3.5 mph - N/A   Clear
7:35 AM 66.2 °F - 57.4 °F 73% 29.96 in 10.0 mi Calm Calm - N/A   Clear
7:55 AM 66.2 °F - 57.4 °F 73% 29.97 in 10.0 mi Calm Calm - N/A   Clear
8:15 AM 67.5 °F - 57.9 °F 71% 29.98 in 10.0 mi Calm Calm - N/A   Clear
8:35 AM 70.0 °F - 58.5 °F 67% 29.98 in 10.0 mi Calm Calm - N/A   Clear
8:55 AM 72.5 °F - 58.5 °F 61% 29.98 in 10.0 mi Calm Calm - N/A   Clear
9:15 AM 75.4 °F - 56.5 °F 52% 29.98 in 10.0 mi SSW 4.6 mph - N/A   Clear
9:35 AM 78.1 °F - 56.8 °F 48% 29.98 in 10.0 mi South 6.9 mph - N/A   Clear
9:55 AM 81.0 °F 81.0 °F 57.2 °F 44% 29.98 in 10.0 mi South 4.6 mph - N/A   Clear
10:15 AM 83.8 °F 83.0 °F 56.5 °F 39% 29.98 in 10.0 mi South 4.6 mph - N/A   Clear
10:35 AM 86.4 °F 85.1 °F 56.3 °F 36% 29.98 in 10.0 mi South 5.8 mph - N/A   Clear
10:55 AM 88.7 °F 86.9 °F 55.4 °F 32% 29.98 in 10.0 mi SSE 4.6 mph - N/A   Clear
11:15 AM 91.2 °F 88.9 °F 53.6 °F 28% 29.98 in 10.0 mi SSE 3.5 mph - N/A   Clear
11:35 AM 92.5 °F 90.2 °F 54.0 °F 27% 29.98 in 10.0 mi South 5.8 mph - N/A   Clear
11:55 AM 94.5 °F 92.1 °F 53.8 °F 25% 29.97 in 10.0 mi SSE 5.8 mph - N/A   Clear
12:15 PM 95.0 °F - 52.5 °F 24% 29.96 in 10.0 mi SE 3.5 mph - N/A   Clear
12:35 PM 95.5 °F - 52.0 °F 23% 29.96 in 10.0 mi Calm Calm - N/A   Clear
12:55 PM 97.0 °F - 52.2 °F 22% 29.95 in 10.0 mi ESE 5.8 mph - N/A   Clear
1:15 PM 97.5 °F - 51.8 °F 21% 29.94 in 10.0 mi SE 8.1 mph - N/A   Clear
1:35 PM 98.1 °F - 51.4 °F 21% 29.93 in 10.0 mi Calm Calm - N/A   Clear
1:55 PM 98.2 °F - 50.4 °F 20% 29.93 in 10.0 mi SSW 3.5 mph - N/A   Clear
2:15 PM 99.9 °F - 50.5 °F 19% 29.92 in 10.0 mi East 9.2 mph - N/A   Clear
2:35 PM 100.0 °F - 50.2 °F 19% 29.91 in 10.0 mi East 6.9 mph - N/A   Clear
2:55 PM 100.0 °F - 49.6 °F 18% 29.90 in 10.0 mi SE 4.6 mph - N/A   Clear
3:15 PM 99.5 °F - 48.6 °F 18% 29.89 in 10.0 mi ESE 3.5 mph - N/A   Clear
3:35 PM 100.6 °F - 47.7 °F 17% 29.88 in 10.0 mi Calm Calm - N/A   Clear
3:55 PM 100.9 °F - 48.2 °F 17% 29.87 in 10.0 mi ESE 9.2 mph - N/A   Clear
4:15 PM 100.9 °F - 48.0 °F 17% 29.86 in 10.0 mi East 8.1 mph - N/A   Clear
4:55 PM 101.7 °F - 45.5 °F 15% 29.85 in 10.0 mi ENE 8.1 mph - N/A   Clear
5:15 PM 101.5 °F - 45.0 °F 15% 29.84 in 10.0 mi ENE 10.4 mph 16.1 mph N/A   Clear
5:35 PM 101.3 °F - 45.9 °F 15% 29.84 in 10.0 mi East 10.4 mph - N/A   Clear
5:55 PM 100.9 °F - 44.6 °F 15% 29.84 in 10.0 mi ESE 5.8 mph - N/A   Clear
6:15 PM 100.4 °F - 46.2 °F 16% 29.84 in 10.0 mi East 10.4 mph 18.4 mph N/A   Clear
6:35 PM 99.9 °F - 45.9 °F 16% 29.84 in 10.0 mi ENE 12.7 mph - N/A   Clear
6:55 PM 99.1 °F - 45.7 °F 16% 29.84 in 10.0 mi East 11.5 mph - N/A   Clear
7:15 PM 98.2 °F - 45.1 °F 16% 29.85 in 10.0 mi East 10.4 mph - N/A   Clear
7:35 PM 97.0 °F - 45.7 °F 17% 29.85 in 10.0 mi East 8.1 mph - N/A   Clear
7:55 PM 94.5 °F - 46.4 °F 19% 29.86 in 10.0 mi ENE 6.9 mph - N/A   Clear
8:15 PM 90.9 °F - 47.3 °F 22% 29.87 in 10.0 mi ENE 6.9 mph - N/A   Clear
8:35 PM 88.7 °F - 47.8 °F 24% 29.88 in 10.0 mi East 8.1 mph - N/A   Clear
8:55 PM 87.1 °F - 47.5 °F 25% 29.88 in 10.0 mi ENE 8.1 mph - N/A   Clear
9:15 PM 85.5 °F - 47.5 °F 27% 29.90 in 10.0 mi ENE 8.1 mph - N/A   Clear
10:55 PM 84.2 °F 83.0 °F 55.6 °F 37% 29.98 in 7.0 mi NNE 18.4 mph - N/A   Clear
11:15 PM 83.3 °F 82.5 °F 55.6 °F 39% 29.99 in 7.0 mi NNE 15.0 mph 19.6 mph N/A   Clear
11:35 PM 82.6 °F 82.0 °F 55.9 °F 40% 30.00 in 7.0 mi NNE 13.8 mph 24.2 mph N/A   Clear
11:55 PM 81.7 °F 81.4 °F 56.3 °F 42% 30.02 in 10.0 mi NNE 16.1 mph 23.0 mph N/A   Clear